Home   Weather   Tucson   Past weeks

Flag for USA Past Weather in Tucson, Arizona, USA — May 2016

Now
74 °F

Sunny.


Feels Like: 77 °F
Forecast: 65 / 84 °F
Wind: 14 mph from Southwest

Location: Davis-Monthan Air Force Base

Current Time: Apr 28, 2017 at 9:36:28 am

Latest Report: Apr 28, 2017 at 8:58 am


Visibility: 10 mi

Pressure: 29.60 "Hg (27.12 "Hg at 758m altitude)

Humidity: 33%

Dew Point: 43 °F

Location of TucsonLocation

May 2016 Weather in Tucson — Graph

°F

High & Low Weather Summary for May 2016

 TemperatureHumidityPressure
High97 °F (May 4, 4:58 pm)60% (May 7, 5:58 am)29.98 "Hg (May 7, 5:58 am)
Low51 °F (May 1, 5:58 am)4% (May 15, 2:58 pm)29.63 "Hg (May 15, 3:58 pm)
Average75 °F22%29.80 "Hg
* Reported May 1 12:58 am — May 31 11:58 pm, Tucson, Weather by CustomWeather, © 2017

Note: Actual official high and low records may vary slightly from our data, if they occured in-between our weather recording intervals... More about our weather records

Advertising

Tucson Weather History for May 1, 2016

Scroll right to see more
 ConditionsComfort  
Time TempWeatherWind HumidityBarometerVisibility
12:58 am
Sun, May 1
56 °FClear.6 mph43%29.71 "Hg10 mi
1:58 am54 °FClear.5 mph49%29.71 "Hg10 mi
2:58 am53 °FClear.5 mph48%29.71 "Hg10 mi
3:58 am53 °FClear.6 mph52%29.72 "Hg10 mi
4:58 am52 °FClear.8 mph56%29.73 "Hg10 mi
5:58 am51 °FSunny.7 mph54%29.75 "Hg10 mi
6:58 am56 °FSunny.7 mph47%29.78 "Hg10 mi
7:58 am60 °FSunny.7 mph42%29.82 "Hg10 mi
8:58 am63 °FSunny.6 mph37%29.83 "Hg10 mi
9:58 am65 °FOvercast.3 mph36%29.83 "Hg10 mi
10:58 am65 °FOvercast.3 mph35%29.83 "Hg10 mi
11:58 am67 °FPartly sunny.3 mph31%29.82 "Hg10 mi
12:58 pm69 °FOvercast.6 mph29%29.82 "Hg10 mi
1:58 pm71 °FOvercast.8 mph28%29.82 "Hg10 mi
2:58 pm71 °FMostly cloudy.3 mph28%29.82 "Hg10 mi
3:58 pm73 °FOvercast.3 mph25%29.81 "Hg10 mi
4:58 pm73 °FPassing clouds.7 mph26%29.81 "Hg10 mi
5:58 pm73 °FScattered clouds.6 mph26%29.82 "Hg10 mi
6:58 pm71 °FSunny.10 mph29%29.83 "Hg10 mi
7:58 pm67 °FClear.6 mph32%29.87 "Hg10 mi
8:58 pm65 °FClear.5 mph35%29.88 "Hg10 mi
9:58 pm65 °FClear.2 mph36%29.90 "Hg10 mi
10:58 pm61 °FClear.No wind42%29.91 "Hg10 mi
11:58 pm59 °FClear.6 mph43%29.92 "Hg10 mi
Weather by CustomWeather, © 2017

See weather overviewHow to use our weather pages